GW2444 Weather Reports


time (UTC)temp
C
wind
direction
speed
KPH
gust
KPH
rain 1hr
cm
rain 24hr
cm
rain mn
cm
humidity
%
barometer
mb
20260906113108 21 54 0.0 4.8 0.00 0.08 0.00 93 1013.9
20260906111627 21 98 0.0 6.4 0.00 0.08 0.00 93 1013.7
20260906110125 21 0 0.0 6.4 0.00 0.08 0.00 93 1013.6
20260906104604 21 82 3.2 6.4 0.00 0.08 0.00 93 1013.4
20260906103109 21 0 0.0 6.4 0.00 0.08 0.00 93 1013.2
20260906101608 21 65 1.6 6.4 0.00 0.08 0.00 93 1013.0
20260906100108 21 94 1.6 6.4 0.00 0.08 0.00 93 1013.0
20260906094606 21 137 1.6 6.4 0.00 0.08 0.00 93 1012.9
20260906093108 21 99 4.8 9.7 0.00 0.08 0.00 93 1012.8
20260906091603 21 95 4.8 9.7 0.00 0.08 0.00 93 1012.9
20260906090105 21 98 3.2 6.4 0.00 0.08 0.00 93 1012.8
20260906084609 21 63 1.6 6.4 0.00 0.08 0.00 93 1013.0
20260906083105 21 85 1.6 4.8 0.00 0.08 0.00 93 1013.0
20260906081605 21 275 0.0 3.2 0.00 0.08 0.00 93 1013.1
20260906080105 21 0 0.0 1.6 0.00 0.08 0.00 93 1013.0
20260906074602 21 0 0.0 0.0 0.00 0.08 0.00 93 1012.7
20260906073104 21 0 0.0 3.2 0.00 0.08 0.00 93 1012.6
20260906071604 21 166 0.0 3.2 0.00 0.08 0.00 93 1012.4
20260906070107 21 224 0.0 3.2 0.00 0.08 0.00 93 1012.2
20260906064608 21 224 0.0 4.8 0.00 0.08 0.00 92 1012.4
20260906063106 21 0 0.0 3.2 0.00 0.08 0.00 92 1012.7
20260906061608 21 0 0.0 1.6 0.00 0.08 0.00 92 1012.9
20260906060112 21 0 0.0 1.6 0.00 0.08 0.00 92 1012.8
20260906054632 22 0 0.0 4.8 0.00 0.08 0.00 92 1012.8
20260906053105 22 0 0.0 3.2 0.00 0.08 0.00 92 1012.8
20260906051605 22 0 0.0 3.2 0.00 0.08 0.00 92 1012.9
20260906050108 22 0 0.0 6.4 0.00 0.08 0.00 92 1012.6
20260906044606 22 194 1.6 4.8 0.00 0.08 0.00 91 1012.9
20260906043104 22 233 0.0 3.2 0.00 0.08 0.00 91 1012.7
20260906041605 22 0 0.0 3.2 0.00 0.08 0.00 91 1012.6
20260906040114 22 0 0.0 4.8 0.00 0.08 0.00 91 1012.4
20260906034609 22 0 0.0 4.8 0.00 0.08 0.08 91 1012.6
20260906033131 22 160 0.0 6.4 0.00 0.08 0.08 90 1012.8
20260906031616 23 145 0.0 4.8 0.00 0.08 0.08 90 1012.9
20260906024608 23 0 0.0 0.0 0.00 0.08 0.08 89 1013.3
20260906023134 23 0 0.0 0.0 0.00 0.08 0.08 88 1013.3
20260906021615 23 0 0.0 1.6 0.00 0.08 0.08 88 1013.3
20260906020106 23 141 0.0 3.2 0.00 0.08 0.08 87 1013.2
20260906014606 24 0 0.0 4.8 0.00 0.08 0.08 86 1013.0
20260906013112 24 167 0.0 3.2 0.00 0.08 0.08 85 1012.6
20260906011607 25 167 0.0 3.2 0.00 0.08 0.08 83 1012.0
20260906010105 25 167 0.0 3.2 0.00 0.08 0.08 81 1011.9
20260906004605 25 0 3.2 6.4 0.00 0.08 0.08 78 1012.1
20260906003105 26 0 0.0 1.6 0.00 0.08 0.08 76 1012.0
20260906001605 26 0 0.0 1.6 0.00 0.08 0.08 73 1012.0
20260906000108 27 0 0.0 3.2 0.00 0.08 0.08 71 1011.9
20260905234608 27 39 0.0 4.8 0.00 0.08 0.08 70 1012.2
20260905233104 27 28 0.0 4.8 0.00 0.08 0.08 69 1012.3
20260905231634 28 33 0.0 4.8 0.00 0.08 0.08 69 1012.3
20260905230108 28 0 0.0 6.4 0.00 0.08 0.08 68 1012.3
20260905224615 28 26 4.8 12.9 0.00 0.08 0.08 67 1012.3
20260905223107 28 0 1.6 9.7 0.00 0.08 0.08 65 1012.4
20260905221606 29 330 3.2 9.7 0.00 0.08 0.08 63 1012.4
20260905220107 30 345 3.2 12.9 0.00 0.08 0.08 62 1012.2
20260905214605 30 351 1.6 14.5 0.00 0.08 0.08 62 1012.1
20260905213110 30 55 3.2 11.3 0.00 0.08 0.08 63 1012.1
20260905211612 30 10 3.2 11.3 0.00 0.08 0.08 63 1011.9
20260905210105 30 54 3.2 9.7 0.00 0.08 0.08 62 1011.7
20260905204618 30 354 4.8 14.5 0.00 0.08 0.08 63 1011.6
20260905203119 30 330 4.8 16.1 0.00 0.08 0.08 64 1011.9
20260905201610 30 311 8.0 19.3 0.00 0.08 0.08 62 1011.8
20260905200120 30 232 1.6 9.7 0.00 0.08 0.08 61 1012.1
20260905194612 30 0 0.0 11.3 0.00 0.08 0.08 59 1012.1
20260905193103 30 289 1.6 11.3 0.00 0.08 0.08 58 1012.3
20260905191606 30 167 0.0 6.4 0.00 0.08 0.08 62 1012.6
20260905190106 29 312 1.6 4.8 0.00 0.08 0.08 62 1013.0
20260905184621 29 0 0.0 9.7 0.00 0.10 0.08 63 1013.3
20260905183106 28 110 1.6 12.9 0.00 0.10 0.08 67 1013.5
20260905181603 28 0 0.0 6.4 0.00 0.10 0.08 68 1013.6
20260905180121 28 97 4.8 11.3 0.00 0.10 0.08 66 1013.8
20260905174607 28 325 1.6 6.4 0.00 0.10 0.08 70 1013.8
20260905173106 27 343 3.2 11.3 0.00 0.10 0.08 72 1014.0
20260905171607 26 62 1.6 11.3 0.00 0.10 0.08 75 1014.2
20260905170126 26 116 4.8 11.3 0.00 0.10 0.08 76 1014.1
20260905164606 25 70 4.8 9.7 0.00 0.10 0.08 79 1014.5
20260905163109 25 112 3.2 6.4 0.00 0.10 0.08 83 1014.8
20260905161607 25 330 1.6 4.8 0.00 0.10 0.08 85 1014.9
20260905160104 24 205 1.6 4.8 0.00 0.10 0.08 86 1015.1
20260905154615 23 204 1.6 16.1 0.00 0.10 0.08 87 1014.6
20260905153108 23 251 9.7 17.7 0.00 0.10 0.08 88 1014.9
20260905151614 23 262 3.2 12.9 0.00 0.10 0.08 88 1014.3
20260905150104 23 0 1.6 12.9 0.00 0.10 0.08 89 1014.0
20260905144609 23 0 1.6 17.7 0.00 0.10 0.08 91 1013.9
20260905143105 23 175 3.2 12.9 0.00 0.10 0.08 91 1014.0
20260905141606 23 145 1.6 9.7 0.08 0.10 0.08 91 1014.8
20260905140108 22 235 3.2 6.4 0.08 0.10 0.08 91 1015.2
20260905134608 22 335 1.6 4.8 0.08 0.10 0.08 91 1015.6
20260905133105 22 161 1.6 8.0 0.08 0.10 0.08 91 1015.4
20260905131608 22 42 4.8 8.0 0.00 0.03 0.00 91 1015.8
20260905130106 22 70 1.6 6.4 0.00 0.03 0.00 92 1015.6
20260905124603 22 44 4.8 17.7 0.00 0.03 0.00 92 1015.5
20260905123102 22 80 9.7 25.7 0.00 0.03 0.00 93 1015.4
20260905121606 22 102 4.8 14.5 0.00 0.03 0.00 94 1015.6
20260905120108 22 0 3.2 11.3 0.00 0.03 0.00 93 1014.3
20260905114604 22 46 6.4 27.4 0.00 0.03 0.00 94 1014.1